Погода в Усть-Озерной

Россия / Забайкальский край     50°42′13″N   117°05′33″E
темп.,
°C
ветер,
м/с
пор.,
м/с
влажн.,
%
обл.,
%
осадки,
мм/ч
давл.,
гПа
погр.,
м
14 апреля, ср
ср1400:00−5юз22255 0.0 101212
03:00−6ююз222565 0.0 101128
06:00−5юз2925100 0.0 1009288
09:00−1з6116899 0.0 1007812
12:00+3сз8105298 0.1 10051716
15:00+5сз81134100 0.6 10052435
18:00+5ссз7102646 0.0 10052544
21:00+1с2238100 0.0 100810
15 апреля, чт
чт1500:000ююв0143100 0.0 100810
03:00−1св2147100 0.0 100812
06:00−2ссв2251100 0.0 100716
09:000св2241100 0.0 1007289
12:00+2св4447100 0.0 10061434
15:00+3всв3545100 0.4 10061583
18:00+3с5529100 0.1 10062094
21:000с3532100 0.1 1008105
16 апреля, пт
пт1600:00−2ссз333557 0.0 101026
03:00−4с33405 0.0 101122
06:00−5ссз33480 0.0 101225
09:00+1ссв6103267 0.0 10131336
12:00+4ссв89175 0.0 10132767
15:00+6с7815100 0.0 10123472
18:00+5с661579 0.0 10133043
21:00+1ссз22250 0.0 101613
17 апреля, сб
сб1700:000зюз11291 0.0 101610
03:00−2юз22320 0.0 101610
06:00−3ююз22351 0.0 101612
09:00+3юз47335 0.0 1015468
12:00+8зюз78333 0.0 10111180
15:00+12з78265 0.0 10081579
18:00+12з68235 0.0 10071711
21:00+7ююз34365 0.0 100849
18 апреля, вс
вс1800:00+5ююз22415 0.0 100810
03:00+4ю22455 0.0 100710
06:00+3юз11492 0.0 100810
09:00+9с12346 0.0 1007232
12:00+14с2323100 0.0 10062299
15:00+15ссз332092 0.0 10052781
18:00+15ссв211941 0.0 10052858
21:00+9ссв3538100 0.0 100890